AirNav   Everest Fuels
 
 1387 users online  

21GE Deer Crossing Airport
Cleveland, Georgia, USA

GOING TO CLEVELAND?


FAA INFORMATION EFFECTIVE 30 DECEMBER 2021

Location

FAA Identifier: 21GE
Lat/Long: 34-32-59.0000N 083-49-20.0000W
34-32.983333N 083-49.333333W
34.5497222,-83.8222222
(estimated)
Elevation: 1390 ft. / 423.7 m (surveyed)
From city: 4 miles SW of CLEVELAND, GA
Time zone: UTC -5 (UTC -4 during Daylight Saving Time)
Zip code: 30528

Airport Operations

Airport use: Private use. Permission required prior to landing
Activation date: 10/2005
Control tower: no
ARTCC: ATLANTA CENTER
FSS: MACON FLIGHT SERVICE STATION
Attendance: IRREG
Segmented circle: no

Airport Communications

WX AWOS-3 at AJR (13 nm E): 119.175 (706-778-3675)
WX ASOS at GVL (17 nm S): 126.475 (770-532-4687)

Nearby radio navigation aids

VOR radial/distance  VOR name  Freq  Var
HRSr169/24.0HARRIS VORTAC109.8000E
ODFr251/27.3FOOTHILLS VOR/DME113.4000E

 
NDB name  Hdg/Dist  Freq  Var  ID
FLOWERY BRANCH014/21.236503WFKV ..-. -.- ...-
CHERO067/37.541505WDJD -.. .--- -..
BARROW COUNTY348/38.640405WBMW -... -- .--

Airport Services

Runway Information

Runway 3/21

Dimensions: 1600 x 120 ft. / 488 x 37 m
Surface: turf
RUNWAY 3  RUNWAY 21
Traffic pattern: leftleft

Airport Ownership and Management from official FAA records

Ownership: Privately-owned
Owner: GEORGE TAYLOR
2155 THOMAS ROAD
CLEVELAND, GA 30528
Phone 706-865-4665
Manager: GEORGE TAYLOR
2155 THOMAS ROAD
CLEVELAND, GA 30528
Phone 706-865-4665

Airport Operational Statistics

Aircraft based on the field: 1
Single engine airplanes: 1
    

Additional Remarks

DEER ON & INVOF ARPT.
RY SHARED WITH HAYFIELD.
OWNER DESIRES APRT NOT BE CHARTED.
FOR CD CTC ATLANTA ARTCC AT 770-210-7692.

Instrument Procedures

There are no published instrument procedures at 21GE.

Some nearby airports with instrument procedures:

KAJR - Habersham County Airport (13 nm E)
KGVL - Lee Gilmer Memorial Airport (17 nm S)
KDZJ - Blairsville Airport (20 nm NW)
KJCA - Jackson County Airport (26 nm SE)
KTOC - Toccoa Airport-RG Letourneau Field (26 nm E)
 
Loc | Ops | Rwys | IFR | FBO | Links
Com | Nav | Svcs | Stats | Notes
Area around 21GE (Deer Crossing Airport)
 
Road maps at: MapQuest Bing Google
 
Aerial photo
No photo
 
Sectional chart

 
Airport distance calculator
Flying to Deer Crossing Airport? Find the distance to fly.

From to 21GE

Sunrise and sunset
Times for 19-Jan-2022
 Local
(UTC-5)
 Zulu
(UTC)
Morning civil twilight07:1512:15
Sunrise07:4212:42
Sunset17:5122:51
Evening civil twilight18:1823:18

Current date and time
Zulu (UTC)  19-Jan-2022 17:21:46
Local (UTC-5)  19-Jan-2022 12:21:46
 
METAR
KAJR 
13nm E 
191655Z AUTO 25004KT 10SM CLR 11/00 A3020 RMK AO2 T01070001
KGVL 
17nm S 
191653Z AUTO 00000KT 10SM CLR 11/00 A3022 RMK AO2 SLP235 T01060000
KDZJ 
20nm NW 
191655Z AUTO 21011G15KT 10SM CLR 13/04 A3018 RMK AO2 T01290041
KJCA 
26nm SE 
191655Z AUTO 23006KT 10SM CLR 10/01 A3023 RMK AO2 T01020012
KTOC 
26nm E 
191655Z AUTO 18005KT 10SM CLR 11/00 A3021 RMK AO2 T01090000
TAF
KAHN 
43nm SE 
191137Z 1912/2012 00000KT P6SM FEW250 FM191600 22004KT P6SM FEW150 FEW250 FM192000 21007KT P6SM SCT120 SCT250 FM200300 18004KT P6SM SCT070 BKN120 FM200800 19005KT P6SM VCSH SCT020 BKN050 FM201100 19005KT 6SM -SHRA OVC020
KPDK 
46nm SW 
191137Z 1912/2012 VRB03KT P6SM SCT200 FM191500 18004KT P6SM FEW150 SCT200 FM191800 20007KT P6SM SCT150 FM200300 17004KT P6SM BKN060 FM200700 19006KT 6SM -SHRA BKN025 BKN040 FM201100 22004KT 5SM -SHRA BR OVC008
NOTAMs
Click for the latest NOTAMs
NOTAMs are issued by the DoD/FAA and will open in a separate window not controlled by AirNav.

 

 
 

Would you like to see your business listed on this page?

 If your business provides an interesting product or service to pilots, flight crews, aircraft, or users of the Deer Crossing Airport, you should consider listing it here.  To start the listing process, click on the button below
 
Add a business
 

Other Pages about Deer Crossing Airport

Update a link
 
Copyright © AirNav, LLC. All rights reserved. Privacy Policy  Contact